QPF
0.01 0.01 0.02 0.02 0.02 0.02 0.02 0.03 0.02 0.02 0.03 0.05 0.07 0.09 0.07 0.05 0.05 0.04 0.03 0.02 0.03 0.04 0.04 0.04 0.06 0.05 0.05 0.04 0.05 0.08 0.08 0.07 0.06 0.06 0.07 0.06 0.06 0.06 0.08 0.10 0.13 0.15 0.11
0.01 0.02 0.03 0.03 0.03 0.02 0.02 0.02 0.02 0.02 0.03 0.05 0.09 0.08 0.04 0.02 0.03 0.05 0.05 0.05 0.05 0.07 0.07 0.06 0.06 0.06 0.06 0.07 0.06 0.07 0.07 0.06 0.05 0.05 0.05 0.06 0.06 0.05 0.04 0.06 0.10 0.17 0.15
0.01 0.01 0.02 0.02 0.03 0.03 0.03 0.03 0.02 0.03 0.05 0.07 0.07 0.03 0.02 0.02 0.02 0.02 0.03 0.05 0.04 0.05 0.06 0.07 0.07 0.08 0.07 0.07 0.07 0.07 0.06 0.05 0.05 0.05 0.07 0.07 0.06 0.04 0.04 0.03 0.05 0.14 0.15
0.01 0.03 0.02 0.01 0.02 0.03 0.03 0.02 0.03 0.07 0.05 0.03 0.01 0.01 0.01 0.01 0.01 0.02 0.03 0.03 0.03 0.03 0.04 0.05 0.07 0.09 0.07 0.06 0.05 0.05 0.05 0.05 0.05 0.05 0.05 0.06 0.05 0.06 0.05 0.03 0.04 0.08 0.13
0.02 0.03 0.03 0.03 0.04 0.04 0.03 0.03 0.03 0.03 0.02 0.02 0.01 0.01 0.01 0.01 0.01 0.02 0.03 0.03 0.03 0.03 0.04 0.05 0.08 0.09 0.08 0.06 0.04 0.06 0.06 0.05 0.05 0.05 0.04 0.04 0.04 0.04 0.04 0.04 0.04 0.05 0.07
0.01 0.02 0.03 0.03 0.05 0.05 0.04 0.03 0.01 0.00 0.01 0.02 0.02 0.02 0.01 0.01 0.01 0.02 0.03 0.03 0.03 0.03 0.03 0.05 0.08 0.08 0.06 0.06 0.05 0.07 0.07 0.06 0.06 0.06 0.06 0.06 0.05 0.05 0.04 0.04 0.04 0.04 0.04
0.01 0.01 0.02 0.03 0.03 0.03 0.02 0.02 0.02 0.01 0.01 0.02 0.02 0.02 0.02 0.02 0.02 0.02 0.03 0.04 0.05 0.04 0.05 0.05 0.06 0.06 0.05 0.05 0.05 0.05 0.06 0.05 0.06 0.06 0.06 0.07 0.06 0.06 0.06 0.05 0.05 0.04 0.04
0.01 0.01 0.02 0.01 0.01 0.01 0.01 0.01 0.02 0.01 0.01 0.01 0.01 0.02 0.02 0.02 0.02 0.02 0.02 0.04 0.05 0.06 0.05 0.05 0.05 0.04 0.04 0.04 0.04 0.04 0.05 0.04 0.05 0.04 0.05 0.06 0.05 0.05 0.05 0.05 0.06 0.05 0.04
0.01 0.01 0.01 0.01 0.01 0.01 0.01 0.01 0.01 0.01 0.01 0.01 0.01 0.01 0.01 0.01 0.02 0.03 0.03 0.03 0.04 0.05 0.03 0.03 0.03 0.03 0.03 0.04 0.04 0.04 0.04 0.04 0.05 0.05 0.05 0.05 0.04 0.04 0.04 0.05 0.06 0.07 0.06
0.01 0.01 0.01 0.01 0.02 0.02 0.02 0.02 0.02 0.02 0.01 0.01 0.01 0.01 0.01 0.01 0.02 0.02 0.02 0.02 0.03 0.04 0.03 0.02 0.02 0.02 0.02 0.02 0.03 0.03 0.03 0.04 0.04 0.05 0.05 0.05 0.05 0.06 0.06 0.07 0.06 0.07 0.06
0.04 0.04 0.04 0.04 0.04 0.04 0.03 0.02 0.01 0.02 0.01 0.01 0.02 0.01 0.01 0.01 0.01 0.02 0.02 0.03 0.03 0.03 0.02 0.02 0.02 0.02 0.02 0.03 0.03 0.04 0.03 0.04 0.04 0.03 0.03 0.03 0.03 0.05 0.06 0.07 0.06 0.05 0.05
0.05 0.06 0.04 0.03 0.04 0.05 0.05 0.03 0.02 0.02 0.02 0.02 0.02 0.02 0.01 0.01 0.02 0.02 0.02 0.03 0.03 0.03 0.03 0.02 0.02 0.02 0.02 0.03 0.02 0.03 0.02 0.03 0.03 0.03 0.03 0.03 0.03 0.04 0.04 0.04 0.04 0.04 0.04
0.02 0.02 0.02 0.02 0.03 0.04 0.04 0.03 0.03 0.03 0.03 0.03 0.02 0.02 0.02 0.03 0.04 0.03 0.02 0.03 0.04 0.03 0.02 0.02 0.02 0.02 0.02 0.02 0.01 0.02 0.02 0.02 0.02 0.03 0.03 0.03 0.03 0.04 0.04 0.04 0.04 0.03 0.03
0.02 0.03 0.02 0.02 0.03 0.04 0.05 0.05 0.04 0.02 0.03 0.03 0.02 0.02 0.02 0.03 0.07 0.08 0.05 0.03 0.03 0.03 0.02 0.01 0.01 0.01 0.01 0.01 0.01 0.01 0.02 0.02 0.02 0.03 0.03 0.03 0.02 0.03 0.03 0.03 0.04 0.03 0.03
0.02 0.03 0.02 0.03 0.03 0.03 0.04 0.05 0.04 0.04 0.04 0.04 0.05 0.06 0.06 0.06 0.08 0.09 0.08 0.05 0.03 0.03 0.03 0.02 0.01 0.01 0.01 0.01 0.01 0.01 0.01 0.02 0.03 0.03 0.03 0.02 0.02 0.02 0.02 0.02 0.03 0.04 0.04
0.01 0.02 0.02 0.02 0.02 0.02 0.02 0.02 0.02 0.02 0.02 0.03 0.03 0.04 0.08 0.09 0.10 0.10 0.09 0.06 0.03 0.04 0.04 0.03 0.02 0.01 0.01 0.01 0.01 0.01 0.02 0.02 0.03 0.03 0.03 0.02 0.02 0.02 0.01 0.01 0.01 0.02 0.03
0.02 0.01 0.01 0.01 0.01 0.01 0.02 0.02 0.02 0.02 0.02 0.03 0.03 0.03 0.04 0.06 0.09 0.09 0.09 0.08 0.05 0.04 0.04 0.03 0.03 0.02 0.01 0.01 0.01 0.01 0.01 0.02 0.02 0.03 0.03 0.03 0.02 0.02 0.01 0.01 0.01 0.01 0.01
0.02 0.02 0.01 0.01 0.02 0.02 0.02 0.01 0.02 0.02 0.03 0.03 0.03 0.03 0.03 0.05 0.09 0.11 0.10 0.09 0.06 0.04 0.04 0.03 0.03 0.02 0.02 0.02 0.01 0.02 0.02 0.02 0.03 0.02 0.03 0.03 0.03 0.02 0.02 0.01 0.01 0.01 0.01
0.02 0.02 0.02 0.02 0.02 0.03 0.03 0.02 0.03 0.03 0.02 0.02 0.03 0.03 0.05 0.05 0.06 0.07 0.06 0.05 0.05 0.05 0.05 0.04 0.03 0.02 0.01 0.02 0.02 0.02 0.02 0.02 0.02 0.02 0.01 0.02 0.02 0.02 0.02 0.02 0.03 0.03 0.03
0.02 0.03 0.03 0.04 0.03 0.03 0.03 0.03 0.03 0.03 0.04 0.04 0.05 0.05 0.07 0.06 0.05 0.04 0.03 0.03 0.03 0.04 0.05 0.04 0.03 0.01 0.01 0.02 0.02 0.02 0.02 0.01 0.01 0.01 0.01 0.01 0.01 0.01 0.01 0.02 0.03 0.04 0.04
0.03 0.04 0.06 0.06 0.06 0.04 0.03 0.04 0.04 0.04 0.05 0.06 0.06 0.07 0.08 0.08 0.07 0.06 0.04 0.03 0.03 0.03 0.03 0.03 0.03 0.02 0.02 0.02 0.02 0.02 0.01 0.01 0.01 0.01 0.01 0.01 0.01 0.00 0.01 0.02 0.04 0.04 0.05
0.04 0.06 0.07 0.07 0.09 0.08 0.06 0.05 0.05 0.06 0.07 0.06 0.06 0.06 0.07 0.08 0.08 0.09 0.06 0.03 0.02 0.02 0.02 0.02 0.03 0.03 0.03 0.03 0.02 0.02 0.01 0.00 0.01 0.01 0.01 0.01 0.01 0.01 0.01 0.02 0.03 0.04 0.05
0.08 0.08 0.08 0.08 0.10 0.08 0.07 0.06 0.06 0.07 0.07 0.05 0.05 0.05 0.05 0.07 0.07 0.08 0.07 0.05 0.04 0.04 0.03 0.03 0.03 0.03 0.03 0.04 0.03 0.02 0.01 0.01 0.01 0.01 0.01 0.02 0.02 0.02 0.02 0.02 0.03 0.05 0.06
0.08 0.09 0.09 0.07 0.08 0.08 0.07 0.07 0.06 0.08 0.09 0.06 0.06 0.06 0.06 0.06 0.06 0.06 0.07 0.06 0.04 0.04 0.04 0.03 0.02 0.02 0.03 0.04 0.03 0.03 0.02 0.01 0.01 0.02 0.02 0.02 0.02 0.02 0.03 0.04 0.04 0.05 0.06
0.03 0.05 0.07 0.06 0.07 0.07 0.06 0.06 0.08 0.09 0.10 0.08 0.07 0.06 0.05 0.05 0.05 0.05 0.06 0.06 0.03 0.03 0.04 0.05 0.04 0.03 0.03 0.03 0.04 0.03 0.03 0.02 0.01 0.01 0.01 0.01 0.01 0.01 0.02 0.03 0.02 0.03 0.03
0.02 0.03 0.04 0.05 0.06 0.06 0.06 0.06 0.07 0.07 0.07 0.07 0.06 0.05 0.05 0.07 0.09 0.07 0.08 0.09 0.07 0.05 0.03 0.04 0.05 0.04 0.03 0.02 0.02 0.02 0.02 0.02 0.02 0.01 0.01 0.01 0.01 0.01 0.01 0.02 0.02 0.02 0.02
MSLP
1000.46 1000.04 999.79 999.74 999.92 1000.31 1000.90 1001.65 1002.49 1003.35 1004.18 1004.92 1005.57 1006.12 1006.60 1007.04 1007.48 1007.95 1008.46 1009.02 1009.60 1010.18 1010.73 1011.23 1011.67 1012.05 1012.39 1012.70 1013.00 1013.31 1013.62 1013.92 1014.21 1014.45 1014.65 1014.78 1014.85 1014.87 1014.85 1014.84 1014.85 1014.89 1014.98
999.82 999.43 999.19 999.11 999.24 999.57 1000.10 1000.80 1001.61 1002.48 1003.33 1004.12 1004.82 1005.42 1005.94 1006.40 1006.85 1007.32 1007.84 1008.39 1008.99 1009.59 1010.18 1010.73 1011.21 1011.64 1012.01 1012.35 1012.67 1012.99 1013.32 1013.65 1013.98 1014.29 1014.55 1014.76 1014.89 1014.96 1014.97 1014.94 1014.90 1014.87 1014.87
999.03 998.71 998.50 998.42 998.51 998.78 999.23 999.86 1000.63 1001.47 1002.33 1003.15 1003.90 1004.56 1005.13 1005.64 1006.11 1006.59 1007.11 1007.67 1008.27 1008.89 1009.51 1010.10 1010.64 1011.12 1011.54 1011.91 1012.25 1012.59 1012.94 1013.30 1013.66 1014.02 1014.35 1014.62 1014.82 1014.95 1015.00 1014.98 1014.91 1014.84 1014.77
998.20 997.99 997.84 997.77 997.83 998.03 998.39 998.92 999.61 1000.39 1001.23 1002.07 1002.86 1003.58 1004.21 1004.77 1005.29 1005.79 1006.32 1006.89 1007.50 1008.14 1008.80 1009.43 1010.02 1010.56 1011.03 1011.44 1011.82 1012.18 1012.54 1012.91 1013.29 1013.68 1014.04 1014.37 1014.63 1014.81 1014.90 1014.91 1014.85 1014.75 1014.64
997.50 997.40 997.33 997.29 997.32 997.44 997.69 998.10 998.66 999.36 1000.14 1000.97 1001.78 1002.54 1003.23 1003.85 1004.41 1004.96 1005.51 1006.10 1006.72 1007.39 1008.08 1008.76 1009.41 1010.00 1010.53 1011.00 1011.41 1011.78 1012.15 1012.52 1012.90 1013.29 1013.67 1014.02 1014.31 1014.54 1014.67 1014.71 1014.68 1014.59 1014.46
997.10 997.13 997.14 997.12 997.11 997.14 997.26 997.51 997.92 998.48 999.16 999.92 1000.72 1001.50 1002.23 1002.90 1003.52 1004.10 1004.69 1005.30 1005.95 1006.64 1007.36 1008.09 1008.79 1009.45 1010.04 1010.55 1011.00 1011.40 1011.76 1012.12 1012.48 1012.85 1013.22 1013.57 1013.88 1014.14 1014.31 1014.39 1014.39 1014.33 1014.22
997.15 997.28 997.36 997.36 997.30 997.22 997.18 997.25 997.46 997.84 998.38 999.04 999.77 1000.53 1001.27 1001.97 1002.62 1003.24 1003.85 1004.48 1005.15 1005.86 1006.62 1007.39 1008.14 1008.86 1009.50 1010.07 1010.56 1010.97 1011.34 1011.68 1012.02 1012.35 1012.70 1013.04 1013.36 1013.63 1013.83 1013.96 1014.01 1013.99 1013.92
997.65 997.87 998.01 998.01 997.89 997.70 997.50 997.36 997.36 997.53 997.87 998.38 999.00 999.69 1000.40 1001.09 1001.75 1002.38 1003.00 1003.64 1004.31 1005.04 1005.80 1006.60 1007.40 1008.16 1008.86 1009.48 1010.00 1010.45 1010.82 1011.16 1011.47 1011.79 1012.11 1012.44 1012.75 1013.04 1013.28 1013.45 1013.55 1013.59 1013.57
998.54 998.83 999.00 999.00 998.83 998.52 998.16 997.82 997.60 997.54 997.67 997.99 998.47 999.05 999.68 1000.32 1000.94 1001.55 1002.16 1002.77 1003.43 1004.14 1004.90 1005.71 1006.53 1007.33 1008.07 1008.73 1009.30 1009.78 1010.18 1010.52 1010.84 1011.14 1011.46 1011.78 1012.10 1012.41 1012.68 1012.90 1013.05 1013.14 1013.17
999.64 999.98 1000.19 1000.18 999.96 999.57 999.07 998.55 998.13 997.85 997.78 997.90 998.20 998.64 999.15 999.70 1000.26 1000.81 1001.36 1001.92 1002.53 1003.20 1003.94 1004.73 1005.55 1006.36 1007.13 1007.84 1008.45 1008.97 1009.40 1009.77 1010.10 1010.42 1010.75 1011.09 1011.43 1011.76 1012.07 1012.33 1012.53 1012.66 1012.74
1000.74 1001.13 1001.36 1001.36 1001.12 1000.67 1000.08 999.44 998.86 998.41 998.15 998.09 998.22 998.49 998.87 999.30 999.76 1000.21 1000.68 1001.17 1001.70 1002.30 1002.98 1003.73 1004.52 1005.32 1006.10 1006.83 1007.48 1008.04 1008.52 1008.93 1009.30 1009.66 1010.02 1010.38 1010.75 1011.12 1011.46 1011.76 1011.99 1012.16 1012.27
1001.67 1002.08 1002.34 1002.36 1002.14 1001.67 1001.05 1000.35 999.67 999.11 998.72 998.51 998.49 998.62 998.85 999.16 999.49 999.83 1000.19 1000.58 1001.02 1001.53 1002.12 1002.80 1003.54 1004.31 1005.08 1005.82 1006.49 1007.08 1007.60 1008.06 1008.48 1008.88 1009.28 1009.68 1010.08 1010.48 1010.85 1011.17 1011.43 1011.63 1011.76
1002.33 1002.76 1003.04 1003.10 1002.91 1002.48 1001.88 1001.18 1000.49 999.87 999.40 999.10 998.96 998.97 999.08 999.26 999.47 999.70 999.94 1000.22 1000.55 1000.96 1001.46 1002.05 1002.72 1003.43 1004.17 1004.88 1005.55 1006.17 1006.72 1007.21 1007.67 1008.11 1008.55 1008.98 1009.41 1009.83 1010.22 1010.57 1010.85 1011.06 1011.20
1002.72 1003.15 1003.45 1003.55 1003.41 1003.05 1002.51 1001.87 1001.21 1000.61 1000.12 999.78 999.57 999.49 999.51 999.58 999.68 999.79 999.93 1000.10 1000.32 1000.62 1001.02 1001.51 1002.09 1002.74 1003.41 1004.09 1004.74 1005.35 1005.91 1006.42 1006.91 1007.37 1007.83 1008.29 1008.74 1009.18 1009.58 1009.94 1010.23 1010.45 1010.61
1002.94 1003.35 1003.64 1003.77 1003.69 1003.40 1002.95 1002.40 1001.82 1001.27 1000.80 1000.46 1000.22 1000.09 1000.04 1000.02 1000.04 1000.06 1000.10 1000.17 1000.29 1000.49 1000.79 1001.18 1001.67 1002.23 1002.83 1003.44 1004.05 1004.64 1005.18 1005.70 1006.19 1006.67 1007.14 1007.61 1008.07 1008.52 1008.93 1009.30 1009.60 1009.85 1010.03
1003.11 1003.47 1003.74 1003.87 1003.83 1003.61 1003.24 1002.78 1002.28 1001.80 1001.39 1001.06 1000.82 1000.66 1000.56 1000.49 1000.44 1000.38 1000.34 1000.33 1000.37 1000.47 1000.67 1000.97 1001.36 1001.83 1002.35 1002.90 1003.46 1004.00 1004.52 1005.02 1005.51 1005.99 1006.46 1006.94 1007.41 1007.87 1008.30 1008.69 1009.02 1009.30 1009.52
1003.36 1003.64 1003.86 1003.97 1003.93 1003.74 1003.43 1003.04 1002.61 1002.20 1001.83 1001.53 1001.30 1001.12 1000.99 1000.88 1000.77 1000.65 1000.55 1000.46 1000.42 1000.45 1000.56 1000.77 1001.07 1001.45 1001.90 1002.38 1002.89 1003.39 1003.89 1004.38 1004.86 1005.34 1005.82 1006.32 1006.81 1007.29 1007.75 1008.17 1008.55 1008.87 1009.16
1003.77 1003.95 1004.09 1004.14 1004.07 1003.88 1003.59 1003.23 1002.84 1002.47 1002.13 1001.84 1001.61 1001.42 1001.26 1001.10 1000.94 1000.78 1000.61 1000.46 1000.34 1000.29 1000.33 1000.46 1000.69 1001.00 1001.38 1001.82 1002.28 1002.77 1003.26 1003.75 1004.24 1004.75 1005.26 1005.79 1006.31 1006.84 1007.34 1007.82 1008.26 1008.65 1009.00
1004.32 1004.40 1004.45 1004.42 1004.30 1004.07 1003.76 1003.40 1003.01 1002.64 1002.31 1002.01 1001.77 1001.55 1001.36 1001.16 1000.95 1000.72 1000.49 1000.27 1000.09 999.97 999.93 999.99 1000.16 1000.42 1000.76 1001.17 1001.63 1002.13 1002.64 1003.17 1003.71 1004.26 1004.83 1005.41 1006.00 1006.59 1007.16 1007.70 1008.21 1008.67 1009.10
1004.94 1004.94 1004.90 1004.80 1004.60 1004.32 1003.97 1003.58 1003.17 1002.78 1002.43 1002.12 1001.84 1001.59 1001.35 1001.10 1000.83 1000.54 1000.25 999.95 999.70 999.51 999.40 999.40 999.51 999.74 1000.07 1000.49 1000.98 1001.51 1002.09 1002.69 1003.31 1003.95 1004.60 1005.26 1005.93 1006.59 1007.23 1007.84 1008.42 1008.94 1009.42
1005.55 1005.49 1005.39 1005.21 1004.96 1004.62 1004.23 1003.80 1003.37 1002.95 1002.57 1002.23 1001.92 1001.63 1001.34 1001.03 1000.70 1000.34 999.97 999.60 999.27 999.01 998.83 998.78 998.86 999.08 999.42 999.87 1000.41 1001.02 1001.69 1002.39 1003.12 1003.86 1004.61 1005.36 1006.11 1006.84 1007.55 1008.22 1008.84 1009.41 1009.92
1006.06 1005.97 1005.83 1005.62 1005.33 1004.96 1004.54 1004.09 1003.63 1003.19 1002.79 1002.43 1002.09 1001.76 1001.42 1001.07 1000.67 1000.25 999.80 999.36 998.96 998.62 998.39 998.30 998.36 998.57 998.94 999.44 1000.06 1000.76 1001.53 1002.35 1003.19 1004.03 1004.88 1005.72 1006.54 1007.33 1008.08 1008.78 1009.42 1009.99 1010.50
1006.40 1006.33 1006.19 1005.97 1005.67 1005.31 1004.88 1004.44 1003.98 1003.55 1003.15 1002.77 1002.42 1002.07 1001.70 1001.30 1000.86 1000.38 999.87 999.36 998.90 998.51 998.23 998.11 998.15 998.38 998.78 999.33 1000.02 1000.82 1001.69 1002.61 1003.54 1004.48 1005.40 1006.29 1007.15 1007.96 1008.72 1009.41 1010.03 1010.58 1011.04
1006.59 1006.54 1006.43 1006.25 1005.98 1005.64 1005.26 1004.84 1004.42 1004.01 1003.63 1003.27 1002.92 1002.57 1002.19 1001.77 1001.30 1000.79 1000.24 999.69 999.19 998.76 998.46 998.32 998.36 998.60 999.03 999.63 1000.38 1001.25 1002.19 1003.17 1004.16 1005.15 1006.10 1007.00 1007.85 1008.65 1009.37 1010.02 1010.58 1011.07 1011.47
1006.64 1006.64 1006.58 1006.44 1006.23 1005.96 1005.63 1005.27 1004.91 1004.55 1004.21 1003.89 1003.57 1003.24 1002.87 1002.46 1001.99 1001.47 1000.92 1000.37 999.85 999.42 999.12 998.98 999.03 999.29 999.74 1000.36 1001.14 1002.03 1003.00 1004.00 1004.99 1005.97 1006.89 1007.76 1008.56 1009.28 1009.93 1010.51 1011.00 1011.40 1011.73
1006.61 1006.65 1006.65 1006.58 1006.43 1006.23 1005.97 1005.69 1005.39 1005.10 1004.82 1004.54 1004.27 1003.97 1003.65 1003.27 1002.83 1002.35 1001.83 1001.32 1000.84 1000.44 1000.16 1000.05 1000.12 1000.39 1000.84 1001.47 1002.24 1003.11 1004.04 1005.00 1005.94 1006.84 1007.69 1008.47 1009.17 1009.80 1010.35 1010.83 1011.24 1011.56 1011.82
Thickness
5782 5782 5780 5777 5774 5772 5769 5767 5764 5761 5759 5756 5754 5750 5748 5746 5745 5743 5740 5739 5737 5736 5735 5736 5734 5734 5734 5733 5733 5732 5730 5729 5730 5728 5726 5729 5730 5730 5729 5729 5728 5727 5725
5777 5775 5774 5772 5769 5767 5765 5764 5761 5759 5756 5754 5752 5749 5747 5745 5744 5741 5738 5736 5735 5734 5734 5732 5732 5731 5730 5729 5728 5727 5727 5727 5727 5725 5722 5721 5723 5725 5728 5727 5726 5725 5724
5773 5770 5769 5767 5766 5764 5763 5762 5759 5757 5754 5752 5750 5747 5744 5742 5741 5738 5736 5734 5732 5731 5730 5730 5729 5728 5728 5726 5724 5723 5722 5722 5723 5724 5721 5717 5717 5721 5723 5723 5724 5722 5722
5771 5769 5766 5764 5764 5764 5762 5759 5756 5753 5751 5749 5747 5744 5741 5738 5737 5736 5734 5732 5730 5729 5727 5726 5726 5725 5725 5723 5722 5721 5720 5718 5719 5720 5720 5720 5720 5715 5715 5718 5720 5719 5718
5769 5766 5764 5763 5763 5762 5760 5757 5753 5749 5748 5746 5743 5740 5739 5737 5736 5734 5730 5729 5728 5726 5725 5723 5723 5722 5721 5720 5719 5717 5717 5717 5716 5716 5716 5715 5715 5715 5712 5710 5712 5714 5716
5766 5764 5762 5761 5759 5758 5757 5754 5750 5746 5744 5742 5740 5737 5735 5733 5731 5728 5727 5726 5725 5723 5722 5721 5719 5718 5717 5716 5715 5714 5713 5713 5712 5712 5713 5711 5710 5710 5710 5708 5707 5708 5711
5761 5758 5757 5755 5753 5752 5752 5750 5746 5743 5741 5739 5736 5734 5732 5729 5726 5725 5723 5722 5721 5719 5717 5717 5715 5714 5713 5712 5711 5710 5710 5708 5707 5707 5707 5708 5708 5709 5708 5705 5705 5704 5707
5757 5754 5752 5750 5749 5748 5747 5745 5742 5739 5738 5736 5733 5731 5728 5727 5726 5722 5721 5719 5718 5717 5714 5712 5711 5710 5709 5708 5707 5707 5706 5704 5703 5703 5703 5703 5704 5705 5704 5702 5700 5698 5700
5750 5749 5747 5746 5745 5743 5742 5740 5738 5736 5734 5732 5729 5726 5724 5722 5721 5718 5717 5716 5714 5713 5710 5708 5707 5706 5704 5703 5702 5702 5701 5700 5699 5700 5699 5699 5700 5700 5700 5700 5698 5695 5692
5743 5743 5741 5740 5739 5738 5737 5735 5733 5731 5729 5727 5725 5724 5721 5718 5716 5715 5712 5711 5709 5707 5706 5704 5703 5701 5700 5699 5697 5698 5697 5695 5694 5694 5693 5693 5695 5695 5695 5695 5695 5694 5691
5737 5737 5735 5735 5735 5733 5731 5729 5727 5725 5723 5722 5721 5718 5717 5715 5713 5710 5709 5706 5704 5702 5701 5700 5698 5696 5695 5694 5692 5692 5691 5690 5689 5689 5688 5687 5688 5688 5690 5690 5690 5689 5688
5730 5731 5729 5729 5727 5725 5723 5722 5720 5719 5718 5717 5715 5713 5711 5710 5708 5706 5704 5702 5700 5699 5697 5695 5694 5692 5690 5689 5687 5686 5686 5685 5684 5683 5683 5682 5682 5681 5682 5682 5683 5683 5683
5722 5723 5722 5721 5720 5719 5717 5716 5714 5713 5712 5711 5709 5707 5705 5704 5702 5701 5699 5697 5696 5694 5693 5691 5689 5687 5685 5684 5683 5682 5681 5680 5679 5678 5677 5677 5676 5675 5676 5675 5676 5677 5678
5713 5713 5713 5713 5713 5713 5712 5710 5709 5707 5706 5705 5703 5701 5700 5698 5697 5696 5694 5692 5691 5689 5687 5686 5684 5682 5681 5679 5678 5677 5676 5674 5674 5673 5672 5672 5671 5670 5670 5670 5670 5671 5671
5704 5704 5704 5705 5705 5705 5704 5704 5703 5702 5699 5697 5697 5695 5694 5693 5691 5690 5689 5687 5686 5685 5682 5680 5679 5677 5676 5674 5672 5671 5670 5669 5668 5667 5667 5666 5665 5663 5663 5664 5664 5664 5665
5696 5697 5698 5698 5697 5697 5697 5696 5695 5694 5693 5691 5690 5690 5689 5688 5686 5684 5683 5681 5680 5678 5677 5675 5673 5671 5670 5665 5662 5663 5664 5663 5662 5661 5660 5660 5658 5656 5654 5654 5654 5655 5657
5688 5689 5690 5690 5690 5690 5690 5689 5688 5687 5686 5685 5685 5684 5683 5682 5680 5679 5677 5675 5673 5671 5670 5668 5667 5664 5661 5657 5655 5654 5656 5656 5655 5654 5653 5654 5654 5651 5651 5648 5647 5647 5647
5681 5682 5683 5683 5683 5682 5682 5682 5682 5681 5680 5679 5679 5679 5677 5676 5674 5673 5670 5668 5666 5665 5663 5662 5660 5658 5654 5650 5648 5647 5649 5650 5649 5648 5647 5646 5646 5646 5644 5644 5643 5643 5643
5674 5675 5677 5678 5677 5676 5676 5675 5675 5675 5674 5673 5673 5672 5671 5669 5668 5666 5664 5662 5660 5658 5657 5656 5654 5652 5649 5644 5642 5640 5643 5644 5644 5643 5642 5641 5639 5636 5635 5636 5637 5637 5637
5667 5668 5669 5670 5669 5669 5670 5669 5668 5667 5666 5667 5666 5665 5664 5663 5661 5659 5658 5656 5655 5654 5652 5651 5649 5647 5644 5638 5636 5634 5640 5639 5639 5638 5637 5633 5632 5629 5628 5630 5631 5630 5631
5658 5659 5660 5661 5662 5663 5663 5662 5662 5661 5661 5660 5659 5658 5656 5655 5655 5653 5652 5651 5650 5648 5646 5645 5643 5641 5638 5634 5631 5630 5633 5635 5635 5635 5633 5631 5625 5623 5622 5622 5624 5624 5623
5649 5650 5650 5651 5653 5654 5654 5653 5652 5653 5653 5652 5651 5649 5648 5648 5648 5646 5646 5645 5644 5642 5640 5639 5638 5637 5634 5630 5627 5625 5624 5625 5628 5628 5628 5625 5619 5617 5616 5617 5617 5615 5614
5638 5640 5641 5641 5642 5644 5644 5644 5643 5644 5644 5642 5641 5640 5640 5640 5640 5639 5639 5639 5638 5637 5636 5635 5635 5634 5632 5627 5622 5619 5618 5618 5620 5622 5618 5615 5613 5612 5612 5611 5610 5610 5613
5629 5631 5632 5632 5632 5633 5634 5634 5634 5635 5634 5633 5632 5633 5632 5632 5632 5632 5634 5633 5632 5631 5630 5629 5628 5628 5626 5623 5619 5617 5616 5613 5614 5614 5612 5609 5608 5608 5608 5608 5608 5609 5609
5621 5622 5623 5622 5623 5623 5624 5625 5625 5626 5626 5625 5625 5626 5627 5627 5625 5625 5624 5625 5623 5621 5620 5621 5621 5620 5618 5613 5608 5609 5610 5610 5609 5607 5608 5608 5608 5608 5608 5608 5607 5606 5604
5612 5613 5613 5613 5613 5614 5615 5615 5616 5616 5617 5617 5618 5620 5620 5620 5620 5619 5618 5614 5613 5610 5608 5607 5607 5610 5606 5602 5601 5600 5599 5598 5597 5599 5604 5605 5605 5604 5604 5604 5603 5602 5600